Tracking 25656 objects as of 21-May-2022
HD Live streaming from Space Station
objects crossing your sky now

JILIN-01 GAOFEN 4A

Track JILIN-01 GAOFEN 4A now!
10-day predictions


NORAD ID: 52388
Int'l Code: 2022-046A
Perigee: 536.1 km
Apogee: 553.8 km
Inclination: 97.5 °
Period: 95.4 minutes
Semi major axis: 6915 km
RCS: Unknown
Launch date: April 30, 2022
Source: People's Republic of China (PRC)
Launch site: Yellow Sea Launch Area, China (YSLA)
aabbcc
Your satellite tracking list
Your tracking list is empty




NASA's NSSDC Master Catalog

Two Line Element Set (TLE):
1 52388U 22046A   22141.62048610  .00006582  00000-0  41428-3 0  9990
2 52388  97.5411 229.3804 0012797 205.9733 259.9503 15.09458092  3243
Source of the keplerian elements: AFSPC